This is the latest recevied weather packets stored in our database for station/object W7BL. If no packets are shown the sender has not sent any weather packets the latest 10 day(s).
| Time | Temp. | Humidity | Pressure | Rain* | Wind** | Luminosity | Snow |
|---|---|---|---|---|---|---|---|
| 1778107017 | 25° C | 32% | - | 0 mm | - | - | - |
| 1778106712 | 25.56° C | 32% | - | 0 mm | - | - | - |
| 1778106409 | 25° C | 34% | - | 0 mm | - | - | - |
| 1778106105 | 25° C | 35% | - | 0 mm | - | - | - |
| 1778105803 | 25.56° C | 36% | - | 0 mm | - | - | - |
| 1778105501 | 25° C | 36% | - | 0 mm | - | - | - |
| 1778105198 | 25.56° C | 35% | - | 0 mm | - | - | - |
| 1778104893 | 25.56° C | 34% | - | 0 mm | - | - | - |
| 1778104590 | 25.56° C | 33% | - | 0 mm | - | - | - |
| 1778104285 | 26.11° C | 34% | - | 0 mm | - | - | - |
| 1778103982 | 25.56° C | 34% | - | 0 mm | - | - | - |
| 1778103680 | 25.56° C | 33% | - | 0 mm | - | - | - |
| 1778103378 | 26.11° C | 34% | - | 0 mm | - | - | - |
| 1778103075 | 26.67° C | 33% | - | 0 mm | - | - | - |
| 1778102772 | 26.67° C | 33% | - | 0 mm | - | - | - |
| 1778102467 | 26.11° C | 33% | - | 0 mm | - | - | - |
| 1778102163 | 26.67° C | 32% | - | 0 mm | - | - | - |
| 1778101860 | 26.67° C | 33% | - | 0 mm | - | - | - |
| 1778101556 | 25.56° C | 35% | - | 0 mm | - | - | - |
| 1778101253 | 25.56° C | 36% | - | 0 mm | - | - | - |
| 1778100950 | 25.56° C | 34% | - | 0 mm | - | - | - |
| 1778100645 | 25.56° C | 36% | - | 0 mm | - | - | - |
| 1778100343 | 25.56° C | 33% | - | 0 mm | - | - | - |
| 1778100040 | 25.56° C | 34% | - | 0 mm | - | - | - |
| 1778099738 | 26.11° C | 36% | - | 0 mm | - | - | - |
* Rain latest hour (hover to see other rain measurements)
** Current wind speed in m/s (hover to see current wind gust speed)